Regional Weather Roundup
Issued by NWS

Home | Current Version | Previous Version | Graphics & Text | Print | Product List | Glossary On
Versions: 1 2 3 4 5 6 7 8 9 10 11 12 13 14 15 16 17 18 19 20 21 22 23 24 25 26 27
000
ASUS43 KDMX 241407
RWRIA

WEATHER ROUNDUP FOR IOWA
NATIONAL WEATHER SERVICE DES MOINES IA
900 AM CDT THU APR 24 2014

NOTE: "FAIR" INDICATES FEW OR NO CLOUDS BELOW 12,000 FEET WITH NO
SIGNIFICANT WEATHER AND/OR OBSTRUCTIONS TO VISIBILITY.

* - THESE STATIONS ARE NOT NWS STATIONS...THUS NOT UNDER NWS
QUALITY CONTROL.  THEY ALSO DO NOT REPORT WEATHER SUCH
AS PRECIPITATION OR FOG.

IAZ001>003-012>014-020>022-031>034-043>046-241500-
   NORTHWEST IOWA

CITY           SKY/WX    TMP DP  RH WIND       PRES   REMARKS
CARROLL *      LGT RAIN  46  45  93 NE8       29.60F
CHEROKEE *     CLOUDY    46  45  93 CALM      29.67S
DENISON *      CLOUDY    46  46 100 NW5       29.62F
LE MARS *        N/A     46  46 100 NW6       29.70R
ORANGE CITY *  CLOUDY    46  43  87 CALM      29.69R FOG
SHELDON *      CLOUDY    43  43 100 CALM      29.68F FOG
SIOUX CITY     CLOUDY    49  45  86 N7        29.68S
SPENCER        LGT RAIN  44  42  93 E7        29.68R FOG
STORM LAKE *   CLOUDY    45  45 100 E7        29.65F
$$

IAZ055>058-069>071-079>083-090>094-241500-
   SOUTHWEST IOWA

CITY           SKY/WX    TMP DP  RH WIND       PRES   REMARKS
ATLANTIC *     CLOUDY    50  48  93 SW5       29.63R FOG
AUDUBON *      DRIZZLE   50  45  81 W6        29.63F
CLARINDA *     CLOUDY    54  52  94 VRB3      29.60F
COUNCIL BLFS * CLOUDY    48  48 100 W6        29.65R FOG
CRESTON *      RAIN      52  50  93 CALM      29.63F
HARLAN  *      CLOUDY    48  48 100 W5        29.67R
LAMONI         TSTM      54  51  90 SW12      29.71R FOG
RED OAK *      CLOUDY    52  50  93 NW6       29.64R FOG
SHENANDOAH *   MOSUNNY   52  52 100 W8        29.67R FOG
$$

IAZ047>049-059>061-072>074-084-241500-
   CENTRAL IOWA

CITY           SKY/WX    TMP DP  RH WIND       PRES   REMARKS
AMES           CLOUDY    50  43  77 S10       29.67R
ANKENY *       CLOUDY    52  46  82 S8        29.68R
CHARITON *     CLOUDY    52  46  82 SE13G20   29.66R
DES MOINES     TSTM      52  46  80 SW12      29.70R
GRINNELL*      LGT RAIN  46  41  81 SE20G26   29.68R
KNOXVILLE *    CLOUDY    50  45  81 SE16G22   29.64F
MARSHALLTOWN   LGT RAIN  48  41  76 SE17      29.67R
NEWTON *       CLOUDY    46  45  93 SE21G28   29.66S FOG
PELLA *        RAIN      48  43  81 SE16      29.68F
PERRY *        LGT RAIN  50  46  87 SE7       29.64F
$$

IAZ004>006-015-016-023>025-035-036-241500-
   NORTH CENTRAL IOWA

CITY           SKY/WX    TMP DP  RH WIND       PRES   REMARKS
ALGONA *       CLOUDY    45  41  87 SE21G28   29.67F
CLARION *      CLOUDY    46  43  87 SE9       29.68S
ESTHERVILLE    LGT RAIN  42  42 100 SE14      29.68R FOG
FORT DODGE *   CLOUDY    46  41  81 E9        29.66F
MASON CITY     CLOUDY    42  39  89 SE17      29.71F
FOREST CITY *  CLOUDY    43  39  87 E16       29.68F
IOWA FALLS *   CLOUDY    46  41  81 SE12G17   29.69R
$$

IAZ007>011-017>019-026>030-037>042-050>054-066-241500-
   NORTHEAST IOWA

CITY           SKY/WX    TMP DP  RH WIND       PRES   REMARKS
CEDAR RAPIDS   LGT RAIN  50  38  63 SE17G26   29.73F
CHARLES CITY * CLOUDY    43  37  81 E20G26    29.72F
CLINTON *      CLOUDY    50  37  62 SE25G33   29.84F
DECORAH *      LGT RAIN  41  39  93 SE14G28   29.77F
DUBUQUE        CLOUDY    47  37  68 SE17G31   29.81F
MONTICELLO *   PTSUNNY   48  39  71 SE22      29.76F
OELWEIN *      MIX PCPN N/A N/A N/A SE23G32   29.73F
WATERLOO       LGT RAIN  44  40  85 SE14      29.70F
$$

IAZ064-065-067-068-078-241500-
   EAST CENTRAL IOWA

CITY           SKY/WX    TMP DP  RH WIND       PRES   REMARKS
DAVENPORT      PTSUNNY   51  39  63 SE24G30   29.81F
IOWA CITY      CLOUDY    52  39  61 SE16      29.75F
MT. PLEASANT * CLOUDY    59  34  38 SE29      29.75F
MUSCATINE *    MOSUNNY   57  37  47 SE16G24   29.77F
QUAD CITIES    PTSUNNY   53  39  59 SE17      29.81F
$$

IAZ062-063-075>077-085>089-095>099-241500-
   SOUTHEAST IOWA

CITY           SKY/WX    TMP DP  RH WIND       PRES   REMARKS
BURLINGTON     CLOUDY    56  35  45 SE10G21   29.79F
FAIRFIELD *    MOSUNNY   54  36  50 SE20G26   29.73F
FORT MADISON * MOSUNNY   57  36  44 S18G24    29.79S
KEOKUK *       SUNNY     57  36  44 SE10G20   29.78S
OSKALOOSA *    DRIZZLE   48  43  81 SE17      29.70S
CENTERVILLE *  MOSUNNY   54  43  66 SE14      29.70S
OTTUMWA        LGT RAIN  49  40  71 SE14      29.70S
WASHINGTON *   SUNNY     54  37  54 SE20G31   29.74F
$$

ABBREVIATIONS USED IN REMARKS
   TC - TEMPERATURES IN CELSIUS
  WCI - WIND CHILL INDEX
   HX - HEAT INDEX
  VSB - VISIBILITY
$$




USA.gov is the U.S. government's official web portal to all federal, state and local government web resources and services.